Notices

What's New in latest Release from April 7th, 2021:

- Updated Glossary, including Speed of Maximum Gust, and Total Hourly Precipitation

- Updated national and regional climate services offices contacts and prices information

- Addition of station inventory lists for 1981-2010, 1971-2000, and 1961-1990 Normals.

If you haven't already, please take our survey and provide feedback about our website: https://eccc.sondage-survey.ca/f/LanguageSelection.aspx?s=442ca660-fcf1-47c0-95a9-59707d6fd709

Hourly Data Report for September 19, 2003

TORONTO CITY
ONTARIO

43°40'00.000" N
79°24'00.000" W
112.50 m
6158355
71508
XTO

Download Data

Hourly Data (September 2003)
Hourly Data Report for September 19, 2003
TIME
LST
Temp Definition
°C
Dew Point Definition
°C
Rel Hum Definition
%
Precip. Amount Definition
mm

Wind Dir Definition
10's deg

Wind Spd Definition
km/h
Visibility Definition
km
Stn Press Definition
kPa
Hmdx Definition


Wind Chill Definition


Weather Definition


00:00 20.2 16.1 77   LegendMM LegendMM LegendMM 100.33 25   LegendNANA
01:00 20.2 15.4 74   LegendMM LegendMM LegendMM 100.18     LegendNANA
02:00 19.9 14.7 72   LegendMM LegendMM LegendMM 100.05     LegendNANA
03:00 19.4 15.2 77   LegendMM LegendMM LegendMM 99.87     LegendNANA
04:00 18.5 15.2 81   LegendMM LegendMM LegendMM 99.72     LegendNANA
05:00 19.1 14.9 77   LegendMM LegendMM LegendMM 99.53     LegendNANA
06:00 18.5 15.4 82   LegendMM LegendMM LegendMM 99.40     LegendNANA
07:00 18.8 15.4 81   LegendMM LegendMM LegendMM 99.24     LegendNANA
08:00 17.5 16.4 93   LegendMM LegendMM LegendMM 99.06     LegendNANA
09:00 18.1 17.4 96   LegendMM LegendMM LegendMM 98.98     LegendNANA
10:00 18.9 18.0 95   LegendMM LegendMM LegendMM 98.85     LegendNANA
11:00 19.0 17.5 91   LegendMM LegendMM LegendMM 98.79     LegendNANA
12:00 18.7 17.2 91   LegendMM LegendMM LegendMM 98.74     LegendNANA
13:00 18.7 17.8 95   LegendMM LegendMM LegendMM 98.73     LegendNANA
14:00 18.6 18.1 97   LegendMM LegendMM LegendMM 98.73     LegendNANA
15:00 18.9 18.5 98   LegendMM LegendMM LegendMM 98.78     LegendNANA
16:00 19.9 19.5 98   LegendMM LegendMM LegendMM 98.90     LegendNANA
17:00 19.2 17.3 89   LegendMM LegendMM LegendMM 99.15     LegendNANA
18:00 19.4 17.1 87   LegendMM LegendMM LegendMM 99.35     LegendNANA
19:00 19.4 16.8 85   LegendMM LegendMM LegendMM 99.50     LegendNANA
20:00 19.3 17.8 91   LegendMM LegendMM LegendMM 99.63     LegendNANA
21:00 19.3 17.9 92   LegendMM LegendMM LegendMM 99.72     LegendNANA
22:00 19.1 17.0 88   LegendMM LegendMM LegendMM 99.82     LegendNANA
23:00 18.2 14.1 77   LegendMM LegendMM LegendMM 99.92     LegendNANA

Notes on Data Quality.

Legend

  • E = Estimated
  • M = Missing
  • NA = Not Available*
  • [empty] = Indicates an unobserved value
Date modified: